User: anonymous   Login
Location: Unspecified
(0.0000°N, 0.0000°E)
Time: 00:28:47
(UTC+00:00)
Language:

Helios 1A - Orbit

View from above orbital plane
View from above orbital plane
View from above satellite
View from above satellite

Ground track
Ground track

The orbit data is extracted from the following two-line orbital elements,

1 23605U 95033A   18197.91339126 0.00000300  00000-0  30299-4 0    09
2 23605  98.2055 266.6575 0013825 237.0845 122.9153 14.91049029    04
Epoch (UTC): 16 July 2018 21:55:17
Eccentricity: 0.0013825
inclination: 98.2055°
perigee height: 585 km
apogee height: 604 km
right ascension of ascending node: 266.6575°
argument of perigee: 237.0845°
revolutions per day: 14.91049029
mean anomaly at epoch: 122.9153°
orbit number at epoch: 0

The dashed part of the orbit path shows where the satellite is in the earth's shadow,  

DLR